Temp
84 83 82 81 82 83 81 82 82 82 82 83 83 84 85 85 82 82 81 80 79 79 79 80 80 80 80 80 80 80 80 79 80 80 80 80 81 80 80 80 81 80 80 80 80 80 81 83 83 83 82 82 81 81 81 81 81 83 81 81 81 80 80
83 84 83 83 82 82 83 83 82 84 84 84 83 84 85 84 82 82 81 80 80 79 80 80 80 80 80 80 80 79 79 79 80 81 81 81 82 81 81 81 81 80 80 81 81 81 82 82 83 82 82 82 82 81 82 81 80 80 80 80 79 79 80
80 82 82 81 82 83 82 83 82 85 84 85 86 85 85 82 83 82 81 81 80 80 80 80 80 80 81 80 79 79 80 80 80 81 80 81 82 84 83 82 82 81 83 83 82 83 84 83 83 82 83 82 83 81 81 80 80 81 80 79 80 80 79
78 79 82 83 83 83 83 82 82 85 86 85 86 86 84 82 85 83 83 82 80 80 79 81 81 81 81 80 80 80 80 80 82 83 83 83 83 83 83 81 83 84 83 83 85 86 88 83 82 82 84 82 81 83 82 82 82 81 81 80 80 80 80
78 78 80 81 81 80 82 82 82 84 85 86 87 86 84 85 86 84 84 84 83 82 82 82 83 83 82 82 83 82 82 82 82 83 84 84 83 83 83 83 83 84 82 85 83 84 82 82 82 81 81 81 81 82 82 82 82 81 80 80 80 81 81
78 77 76 80 81 81 83 83 85 85 85 86 86 86 85 86 86 85 85 84 84 84 83 83 83 82 82 83 84 84 83 82 82 83 83 82 83 84 83 84 85 85 85 84 85 85 83 84 84 82 83 83 83 84 83 82 83 83 80 80 80 81 82
77 75 74 78 80 80 83 83 85 85 86 88 86 87 87 88 87 86 86 85 85 83 84 83 84 83 82 83 83 83 82 83 83 83 83 85 84 84 84 84 85 85 87 84 85 85 84 84 84 83 84 84 81 85 82 82 81 82 80 80 79 80 80
78 76 75 76 81 81 83 84 87 87 87 88 86 85 87 88 87 86 86 84 84 84 84 85 85 84 83 84 84 83 84 84 84 84 83 85 85 83 85 84 84 85 85 86 85 85 86 84 86 85 85 84 83 82 84 82 81 83 82 81 79 80 85
77 77 77 76 79 82 83 83 85 87 85 86 86 86 87 87 87 86 87 85 84 83 83 85 84 84 84 84 83 82 84 84 84 84 84 86 85 86 86 86 85 86 85 87 86 86 86 85 86 84 84 84 83 82 82 82 83 82 82 81 80 80 83
77 75 75 77 77 79 81 82 83 84 81 83 84 85 86 86 87 87 84 85 85 83 84 86 83 83 82 81 83 84 84 83 84 85 86 86 86 87 87 87 86 86 85 86 87 87 85 86 86 84 82 83 82 81 81 81 82 82 82 82 82 81 81
74 73 74 76 76 76 76 79 80 81 77 79 82 85 86 84 85 85 82 84 84 83 84 85 82 83 82 81 82 82 83 84 85 85 85 86 87 88 88 87 87 86 86 85 85 86 86 85 84 83 83 86 82 82 81 82 82 82 83 83 83 82 82
72 72 72 75 76 76 74 77 77 77 76 76 79 82 82 80 81 83 81 84 84 83 83 82 82 83 82 82 82 80 81 83 84 85 86 86 87 88 87 88 86 86 86 86 86 83 85 85 85 83 83 83 83 83 82 82 82 81 82 83 83 83 83
68 68 68 71 73 74 75 76 75 75 75 76 77 80 82 80 80 80 80 82 83 83 83 81 82 82 82 83 82 81 81 81 82 83 86 85 86 88 87 87 88 88 87 86 86 85 84 85 84 84 84 83 83 84 83 83 83 82 82 83 83 82 82
70 70 71 72 74 73 73 74 75 75 75 78 79 79 79 81 79 80 80 82 82 83 83 81 82 82 82 82 82 81 80 80 82 83 83 85 83 84 87 88 87 87 87 86 85 86 86 86 85 85 85 85 84 83 84 82 82 81 82 83 83 81 81
68 70 72 72 71 71 70 71 72 73 76 77 79 79 78 78 78 80 80 81 81 83 82 81 81 81 81 81 80 79 80 80 81 81 81 83 84 83 83 86 86 86 86 86 86 88 87 87 86 85 85 84 84 83 84 84 83 82 82 81 81 81 80
68 68 69 69 69 69 69 69 69 70 72 76 77 78 78 75 77 79 79 79 80 81 81 80 80 80 80 80 79 79 79 78 78 78 80 81 82 83 83 84 85 86 86 85 86 85 85 85 85 86 85 84 83 83 86 85 84 81 82 83 81 80 82
66 67 68 67 67 68 67 67 69 70 71 72 74 74 73 74 76 78 79 78 78 78 79 80 79 79 77 76 75 75 74 73 72 73 73 73 75 76 79 80 83 83 82 82 84 83 82 85 85 85 85 85 84 83 84 78 73 69 66 71 76 83 81
66 66 67 68 68 68 67 68 69 69 71 72 73 71 72 73 73 74 75 78 78 79 79 77 74 73 72 72 73 73 72 71 72 73 72 73 73 73 74 78 79 79 79 80 82 81 83 83 83 83 84 86 85 82 74 70 65 63 65 66 68 73 78
66 66 67 67 67 66 67 67 68 69 69 70 71 71 72 74 75 75 75 76 77 78 74 73 73 72 72 72 73 71 71 72 71 72 73 74 73 72 72 73 76 77 77 76 77 78 77 77 78 79 79 79 75 73 71 68 64 62 64 65 65 67 74
67 67 67 67 68 67 67 67 68 69 69 69 70 71 71 73 73 74 76 77 74 72 72 73 73 73 73 73 73 72 71 72 72 72 72 72 71 71 70 72 74 74 74 74 73 73 74 76 75 76 75 74 72 69 69 67 63 61 62 63 64 65 69
66 66 66 66 66 67 68 68 67 68 69 70 72 71 71 71 75 75 74 75 73 72 71 72 72 72 72 72 72 72 71 71 71 71 72 72 71 71 70 71 72 73 73 73 72 72 71 72 73 76 76 75 73 71 69 66 59 59 61 61 63 63 70
66 67 66 66 66 66 67 67 68 68 68 69 71 73 73 72 74 74 74 74 73 71 72 72 72 72 71 71 71 72 72 72 71 71 72 72 71 71 70 71 72 73 73 72 71 71 71 72 73 73 73 73 73 71 68 64 57 58 58 60 61 67 74
67 67 68 68 69 68 68 69 68 68 69 69 70 72 73 73 74 74 74 74 73 71 70 70 70 70 71 72 72 72 72 71 71 71 71 72 71 71 71 72 72 74 73 72 71 70 70 70 71 71 70 70 69 67 65 64 59 56 57 58 61 73 76
68 69 69 69 69 69 69 70 70 71 70 70 70 71 72 75 75 73 72 73 73 71 70 69 69 70 71 71 72 71 71 71 72 71 72 72 72 72 72 73 73 72 73 71 70 69 69 69 68 68 68 68 67 68 65 64 60 55 56 58 62 73 75
68 68 68 68 69 68 69 69 70 71 71 70 69 70 71 72 73 72 71 72 72 71 70 70 70 69 69 69 70 71 72 72 71 71 72 72 71 71 72 72 72 71 71 70 70 70 69 69 67 67 66 66 66 69 64 63 62 56 55 56 62 72 76
67 68 68 68 70 70 69 70 69 68 68 68 69 71 71 71 70 70 70 70 71 69 68 68 69 69 70 71 71 71 71 71 72 71 71 71 70 70 70 71 71 71 71 70 70 69 68 68 66 65 65 65 64 65 64 63 62 60 54 55 57 64 74
68 68 68 70 71 72 71 70 68 67 67 68 69 70 71 70 69 69 69 69 68 68 68 69 70 71 70 69 70 71 70 70 70 70 70 70 69 69 70 70 70 71 70 70 69 68 66 65 64 63 63 64 64 64 64 65 63 60 55 55 56 59 67
67 68 70 71 72 73 74 73 71 70 68 68 69 69 69 69 68 68 68 68 67 68 70 70 70 70 70 70 70 69 69 69 68 69 69 69 69 68 67 68 69 68 68 67 66 65 64 63 63 62 62 62 63 64 63 66 66 63 59 56 55 56 61
64 64 66 69 72 73 73 71 71 70 70 71 70 70 70 69 68 68 68 67 67 69 70 70 70 70 70 69 70 70 70 70 70 70 70 69 69 68 66 67 66 66 66 65 65 63 62 62 61 61 60 61 61 62 63 64 66 65 63 58 55 55 57
65 66 66 70 72 72 72 70 70 70 70 71 71 71 71 69 68 68 68 68 70 71 71 71 70 70 69 69 69 70 70 71 71 70 69 69 69 67 66 66 66 66 67 66 65 64 62 61 61 61 61 61 61 63 63 63 63 65 66 63 57 55 55
63 64 66 67 69 70 70 69 68 69 69 70 70 70 70 71 69 69 68 69 71 70 71 70 70 69 68 67 66 68 70 70 70 70 70 69 68 67 67 67 68 66 66 66 66 65 64 63 64 63 63 63 62 62 64 65 65 65 67 68 64 58 57
63 64 64 65 67 69 70 69 68 68 67 68 70 71 70 70 70 69 69 71 72 72 71 71 70 70 69 69 69 68 69 68 67 67 67 68 68 68 68 68 68 68 67 67 67 67 66 65 66 65 65 64 64 63 64 64 63 61 64 67 67 65 61
62 63 62 62 65 65 65 67 67 67 67 67 68 69 71 72 71 69 69 70 72 72 71 71 70 70 69 69 71 71 70 69 67 65 64 63 63 64 64 62 61 61 62 64 66 67 67 67 66 65 65 65 65 65 63 62 61 60 59 60 61 62 62
61 62 62 63 65 64 64 65 65 65 65 65 65 66 68 69 69 69 69 70 71 71 70 70 70 69 69 70 70 70 70 69 68 64 61 59 58 58 60 60 59 57 56 56 59 64 66 66 66 64 64 63 63 63 61 60 59 58 57 57 58 59 59
61 61 62 62 62 63 63 63 63 64 65 64 64 65 65 66 67 68 67 68 68 68 68 68 70 69 68 68 68 69 69 66 65 63 60 58 55 53 51 53 57 57 56 56 55 56 62 62 61 62 61 62 63 62 60 59 57 55 50 50 50 54 55
62 62 62 62 62 62 62 63 62 63 64 63 64 63 64 64 65 66 68 67 68 68 67 67 67 66 66 67 67 68 68 65 64 63 62 60 57 56 54 51 45 49 56 55 55 51 51 53 57 60 60 57 55 58 60 58 56 48 43 41 41 42 43
62 62 62 63 62 62 62 62 62 62 63 64 65 64 63 62 63 64 65 65 66 66 65 65 66 67 66 67 68 68 67 66 64 64 62 61 59 58 56 54 53 44 43 50 52 49 46 45 47 50 55 59 55 51 47 48 45 41 41 40 40 40 40
61 61 62 63 63 63 63 63 62 62 62 63 64 62 62 63 63 62 64 64 64 65 65 65 65 66 66 66 67 68 66 65 65 64 63 61 60 59 57 56 54 54 46 42 46 47 44 44 45 45 47 51 54 56 50 45 42 40 39 38 39 40 40
MSLP
1011.88 1012.04 1012.24 1012.32 1012.56 1012.72 1012.96 1012.92 1013.04 1013.32 1013.60 1013.92 1014.16 1014.32 1014.56 1014.84 1015.16 1015.44 1015.88 1016.20 1016.60 1016.92 1016.88 1016.96 1017.12 1017.24 1017.44 1017.60 1017.68 1017.76 1017.84 1018.00 1018.08 1018.36 1018.52 1018.64 1018.64 1018.84 1019.08 1019.12 1019.28 1019.40 1019.40 1019.72 1019.72 1019.68 1019.56 1019.36 1019.48 1019.52 1019.56 1019.64 1019.76 1019.76 1019.84 1019.80 1019.92 1020.00 1020.08 1020.12 1020.20 1020.36 1020.48
1012.04 1011.92 1012.08 1012.12 1012.28 1012.44 1012.52 1012.52 1012.72 1012.96 1013.28 1013.48 1013.84 1014.04 1014.24 1014.60 1014.92 1015.28 1015.64 1015.92 1016.28 1016.60 1016.68 1016.80 1017.00 1017.16 1017.24 1017.40 1017.48 1017.64 1017.84 1017.96 1017.96 1018.12 1018.24 1018.40 1018.36 1018.44 1018.52 1018.76 1018.92 1019.08 1019.08 1019.12 1019.20 1019.16 1019.20 1019.24 1019.24 1019.48 1019.60 1019.60 1019.72 1019.68 1019.76 1019.76 1019.84 1019.96 1020.12 1020.16 1020.28 1020.44 1020.44
1012.04 1011.76 1011.76 1011.88 1012.04 1012.12 1012.24 1012.32 1012.56 1012.64 1012.88 1013.08 1013.36 1013.76 1014.00 1014.32 1014.52 1014.88 1015.32 1015.76 1016.20 1016.44 1016.52 1016.68 1016.80 1016.96 1017.04 1017.20 1017.48 1017.64 1017.64 1017.76 1017.88 1018.08 1018.32 1018.40 1018.40 1018.36 1018.32 1018.44 1018.56 1018.80 1018.76 1018.68 1018.84 1018.96 1018.88 1019.08 1019.08 1019.24 1019.40 1019.60 1019.64 1019.68 1019.68 1019.76 1019.80 1019.88 1020.00 1020.04 1020.24 1020.40 1020.52
1012.00 1011.68 1011.40 1011.32 1011.48 1011.60 1011.76 1012.08 1012.32 1012.44 1012.48 1012.68 1012.92 1013.24 1013.60 1014.00 1014.04 1014.40 1014.84 1015.32 1015.92 1016.28 1016.60 1016.56 1016.64 1016.80 1016.88 1017.12 1017.36 1017.52 1017.60 1017.60 1017.60 1017.72 1017.88 1017.96 1018.12 1018.12 1018.32 1018.40 1018.40 1018.44 1018.64 1018.76 1018.60 1018.60 1018.64 1018.76 1019.04 1019.16 1019.24 1019.44 1019.56 1019.56 1019.64 1019.76 1019.76 1019.80 1019.88 1020.00 1020.20 1020.24 1020.32
1011.52 1011.28 1011.24 1011.32 1011.52 1011.80 1011.84 1011.96 1012.12 1012.24 1012.48 1012.44 1012.60 1012.80 1013.28 1013.56 1013.80 1014.24 1014.60 1014.88 1015.36 1015.92 1016.00 1016.20 1016.32 1016.44 1016.56 1016.72 1016.96 1017.12 1017.32 1017.40 1017.44 1017.40 1017.52 1017.60 1017.72 1017.88 1018.20 1018.40 1018.36 1018.40 1018.40 1018.40 1018.40 1018.52 1018.68 1018.84 1019.00 1019.12 1019.28 1019.32 1019.60 1019.60 1019.68 1019.68 1019.76 1019.76 1019.92 1020.00 1020.24 1020.24 1020.36
1011.68 1011.52 1011.48 1011.32 1011.32 1011.48 1011.56 1011.64 1011.72 1011.92 1012.16 1012.44 1012.64 1012.84 1013.24 1013.44 1013.68 1014.20 1014.40 1014.76 1015.16 1015.44 1015.68 1015.96 1016.24 1016.36 1016.64 1016.60 1016.68 1016.84 1016.96 1017.12 1017.12 1017.16 1017.32 1017.40 1017.60 1017.84 1018.04 1018.08 1018.16 1018.28 1018.40 1018.40 1018.32 1018.44 1018.60 1018.84 1018.96 1019.12 1019.28 1019.32 1019.48 1019.60 1019.64 1019.76 1019.72 1019.72 1019.92 1020.00 1020.20 1020.32 1020.40
1011.52 1011.40 1011.40 1011.20 1011.00 1011.24 1011.24 1011.36 1011.40 1011.60 1011.72 1011.88 1012.20 1012.44 1012.88 1013.24 1013.68 1013.96 1014.20 1014.64 1014.88 1015.48 1015.72 1015.92 1015.96 1016.16 1016.36 1016.44 1016.60 1016.68 1016.96 1017.04 1017.04 1017.16 1017.12 1017.24 1017.36 1017.64 1017.76 1017.76 1017.84 1017.96 1017.96 1018.04 1018.32 1018.32 1018.60 1018.76 1018.88 1019.00 1019.12 1019.24 1019.32 1019.48 1019.60 1019.68 1019.76 1019.72 1019.84 1020.04 1020.24 1020.24 1020.28
1011.12 1011.28 1011.20 1011.00 1010.76 1010.84 1011.00 1011.12 1011.12 1011.32 1011.52 1011.64 1012.16 1012.64 1012.92 1013.04 1013.44 1013.92 1014.24 1014.44 1014.72 1015.08 1015.40 1015.64 1015.80 1015.92 1016.08 1016.20 1016.36 1016.56 1016.68 1016.80 1016.80 1016.92 1017.00 1017.20 1017.32 1017.48 1017.48 1017.56 1017.64 1017.60 1017.72 1018.04 1018.08 1018.08 1018.40 1018.56 1018.68 1018.80 1018.96 1019.16 1019.20 1019.28 1019.32 1019.40 1019.52 1019.60 1019.72 1020.04 1020.20 1020.28 1020.08
1010.96 1010.80 1010.96 1011.00 1010.76 1010.76 1010.76 1010.88 1010.96 1011.12 1011.56 1011.84 1012.16 1012.48 1012.76 1012.96 1013.28 1013.68 1013.96 1014.28 1014.56 1014.96 1015.24 1015.20 1015.40 1015.52 1015.76 1016.00 1016.20 1016.40 1016.44 1016.56 1016.80 1016.84 1016.96 1017.12 1017.24 1017.36 1017.32 1017.32 1017.36 1017.24 1017.64 1017.76 1017.88 1017.84 1018.08 1018.32 1018.40 1018.60 1018.76 1019.00 1019.08 1019.12 1019.28 1019.32 1019.40 1019.40 1019.60 1019.84 1020.08 1020.24 1020.20
1011.16 1011.16 1010.92 1010.96 1010.56 1010.76 1010.76 1010.80 1010.96 1011.24 1011.76 1012.00 1012.24 1012.44 1012.68 1012.88 1013.04 1013.36 1013.68 1014.00 1014.36 1014.80 1014.92 1015.00 1015.12 1015.32 1015.64 1015.92 1016.08 1016.12 1016.28 1016.52 1016.60 1016.80 1016.88 1017.08 1017.04 1017.12 1017.04 1017.04 1017.08 1017.04 1017.28 1017.40 1017.48 1017.76 1017.88 1017.92 1018.12 1018.28 1018.56 1018.76 1018.92 1019.04 1019.12 1019.24 1019.28 1019.28 1019.40 1019.64 1019.80 1020.00 1020.08
1011.32 1011.28 1011.28 1011.28 1011.16 1011.24 1011.36 1011.28 1011.44 1011.56 1011.92 1012.12 1012.20 1012.32 1012.48 1012.84 1013.00 1013.20 1013.60 1013.80 1014.20 1014.44 1014.48 1014.64 1014.80 1015.12 1015.44 1015.72 1016.04 1016.08 1016.20 1016.40 1016.48 1016.76 1016.88 1016.92 1016.84 1016.92 1016.80 1016.84 1016.88 1016.92 1017.08 1017.16 1017.40 1017.44 1017.60 1017.80 1017.84 1018.16 1018.32 1018.60 1018.76 1018.88 1019.04 1019.08 1019.16 1019.32 1019.36 1019.40 1019.40 1019.60 1019.80
1012.92 1013.00 1012.60 1011.88 1011.72 1011.72 1012.12 1011.76 1011.64 1011.84 1012.12 1012.28 1012.28 1012.44 1012.60 1012.80 1012.96 1013.04 1013.48 1013.60 1013.68 1014.16 1014.36 1014.44 1014.60 1014.84 1015.24 1015.52 1015.88 1016.04 1016.20 1016.28 1016.40 1016.60 1016.72 1016.76 1016.72 1016.72 1016.72 1016.72 1016.84 1016.92 1016.96 1017.00 1017.32 1017.40 1017.44 1017.64 1017.76 1018.00 1018.28 1018.36 1018.52 1018.60 1018.80 1018.88 1019.00 1019.20 1019.28 1019.32 1019.32 1019.40 1019.56
1013.52 1014.12 1014.48 1013.48 1012.64 1012.28 1012.20 1012.24 1012.00 1012.00 1012.12 1012.36 1012.56 1012.44 1012.56 1012.80 1013.00 1013.08 1013.40 1013.56 1013.52 1013.68 1014.00 1014.28 1014.52 1014.80 1015.08 1015.36 1015.68 1016.00 1016.20 1016.28 1016.36 1016.40 1016.52 1016.56 1016.56 1016.44 1016.56 1016.72 1016.76 1016.88 1017.04 1016.96 1017.12 1017.36 1017.52 1017.56 1017.76 1017.80 1018.00 1018.16 1018.28 1018.48 1018.60 1018.76 1018.84 1019.00 1019.08 1019.12 1019.20 1019.32 1019.52
1012.28 1012.28 1012.60 1012.64 1012.92 1012.88 1012.76 1012.52 1012.12 1012.16 1012.24 1012.32 1012.40 1012.64 1012.56 1012.48 1012.72 1013.00 1013.28 1013.48 1013.56 1013.60 1013.88 1014.20 1014.44 1014.76 1015.04 1015.32 1015.68 1015.92 1016.12 1016.20 1016.16 1016.24 1016.28 1016.28 1016.32 1016.36 1016.36 1016.52 1016.68 1016.76 1016.80 1016.84 1017.16 1017.28 1017.40 1017.56 1017.68 1017.72 1017.76 1017.96 1018.12 1018.24 1018.32 1018.56 1018.72 1018.84 1018.92 1018.96 1019.04 1019.24 1019.40
1012.96 1012.60 1012.44 1013.00 1013.40 1013.36 1013.44 1013.84 1013.76 1013.48 1012.88 1012.40 1012.36 1012.40 1012.76 1012.92 1012.84 1012.84 1013.08 1013.20 1013.36 1013.52 1013.84 1014.00 1014.44 1014.80 1015.08 1015.36 1015.72 1015.92 1015.92 1016.00 1016.04 1016.00 1016.04 1016.12 1016.20 1016.28 1016.40 1016.36 1016.44 1016.52 1016.64 1016.80 1016.92 1017.00 1017.12 1017.20 1017.36 1017.72 1017.88 1017.92 1018.00 1018.12 1018.20 1018.48 1018.68 1018.72 1018.84 1019.00 1019.12 1019.16 1019.40
1013.36 1013.28 1013.32 1013.56 1013.84 1013.96 1014.16 1013.96 1013.48 1013.80 1014.40 1013.48 1012.64 1012.56 1012.80 1013.76 1013.88 1013.08 1013.16 1013.44 1013.40 1013.56 1013.72 1013.88 1014.48 1014.92 1015.28 1015.56 1015.72 1015.76 1015.76 1015.92 1016.04 1016.12 1016.08 1016.20 1016.24 1016.08 1016.16 1016.36 1016.40 1016.40 1016.60 1016.72 1016.76 1016.84 1016.96 1017.08 1017.24 1017.48 1017.76 1018.00 1018.04 1018.04 1018.16 1018.36 1018.48 1018.64 1018.68 1018.72 1018.92 1019.12 1019.20
1014.12 1014.00 1013.96 1014.20 1014.12 1014.08 1014.40 1014.48 1014.28 1013.56 1013.60 1014.24 1014.12 1013.64 1013.84 1013.96 1014.28 1014.16 1013.56 1013.52 1013.64 1013.80 1013.80 1013.92 1014.52 1015.04 1015.64 1016.20 1016.20 1016.12 1016.04 1016.08 1016.24 1016.24 1016.36 1016.44 1016.36 1016.40 1016.28 1016.24 1016.28 1016.48 1016.60 1016.72 1016.76 1016.92 1016.96 1017.00 1017.32 1017.44 1017.52 1017.64 1017.88 1018.08 1018.20 1018.56 1018.88 1019.00 1018.88 1018.80 1018.80 1018.88 1019.08
1014.80 1014.48 1014.32 1014.24 1014.24 1014.32 1014.24 1013.92 1014.36 1014.80 1014.08 1013.56 1014.24 1014.20 1013.64 1013.52 1014.08 1014.28 1014.32 1014.04 1013.96 1013.92 1014.12 1014.88 1015.92 1016.56 1016.88 1016.88 1016.68 1016.48 1016.52 1016.56 1016.40 1016.20 1016.32 1016.40 1016.60 1016.56 1016.52 1016.28 1016.24 1016.48 1016.68 1016.84 1016.96 1016.92 1016.88 1017.12 1017.24 1017.32 1017.40 1017.48 1017.60 1018.16 1018.80 1019.24 1019.44 1019.32 1019.28 1019.16 1019.04 1019.00 1019.00
1015.12 1015.40 1015.08 1014.64 1014.68 1014.68 1014.48 1014.44 1014.52 1014.56 1014.72 1014.56 1014.60 1014.56 1014.12 1013.36 1013.44 1013.80 1013.68 1013.96 1014.08 1014.40 1015.16 1015.68 1016.32 1016.96 1016.80 1016.44 1016.44 1016.48 1016.28 1016.20 1016.28 1016.36 1016.36 1016.44 1016.52 1016.44 1016.52 1016.56 1016.48 1016.52 1016.80 1017.16 1017.04 1017.04 1017.32 1017.48 1017.52 1017.68 1017.56 1017.88 1018.60 1019.12 1019.40 1019.60 1019.64 1019.52 1019.36 1019.28 1019.24 1019.24 1019.12
1014.24 1014.40 1014.68 1014.88 1014.76 1014.64 1014.64 1015.16 1014.88 1014.72 1014.68 1014.72 1014.56 1014.04 1013.88 1014.04 1014.12 1014.04 1013.92 1014.08 1014.60 1015.68 1015.84 1015.76 1015.88 1016.12 1016.16 1015.80 1015.72 1016.04 1016.16 1016.16 1016.36 1016.48 1016.56 1016.72 1016.72 1016.68 1016.68 1016.64 1016.76 1016.96 1017.04 1017.12 1017.24 1017.44 1017.72 1017.84 1017.80 1017.76 1017.80 1018.08 1018.60 1019.12 1019.52 1019.64 1019.76 1019.68 1019.48 1019.28 1019.16 1019.20 1019.16
1014.56 1014.76 1015.12 1014.84 1014.92 1014.92 1014.88 1014.96 1015.16 1014.92 1014.56 1014.44 1014.48 1014.36 1014.04 1013.96 1013.84 1013.92 1014.08 1014.36 1015.00 1015.44 1015.72 1015.88 1016.28 1016.52 1016.56 1016.40 1016.04 1016.16 1016.36 1016.68 1016.80 1016.88 1016.96 1017.00 1016.96 1017.04 1017.04 1017.04 1017.04 1017.04 1017.12 1017.20 1017.48 1017.76 1017.96 1017.92 1017.88 1017.92 1017.96 1018.20 1018.40 1018.72 1019.24 1019.60 1019.84 1019.72 1019.56 1019.32 1019.12 1019.08 1019.00
1014.48 1014.32 1015.24 1015.64 1015.32 1015.16 1015.04 1015.36 1015.36 1015.16 1014.72 1014.40 1014.52 1014.44 1014.24 1014.12 1013.92 1014.16 1014.52 1014.64 1015.20 1015.52 1015.60 1015.88 1016.44 1016.76 1016.64 1016.60 1016.52 1016.40 1016.48 1016.84 1017.12 1017.28 1017.36 1017.20 1017.04 1017.08 1017.16 1017.24 1017.24 1017.24 1017.20 1017.36 1017.68 1017.84 1017.92 1018.04 1017.96 1018.08 1018.28 1018.36 1018.52 1018.88 1019.28 1019.60 1019.68 1019.60 1019.44 1019.20 1019.00 1018.88 1018.80
1014.92 1014.44 1015.04 1015.32 1015.00 1014.96 1014.64 1014.96 1015.60 1015.60 1015.36 1015.12 1014.88 1014.52 1014.48 1014.32 1014.24 1014.40 1014.60 1014.80 1015.12 1015.48 1015.96 1016.16 1016.48 1016.84 1016.92 1016.64 1016.60 1016.56 1016.68 1016.84 1016.96 1017.16 1017.32 1017.32 1017.20 1017.08 1017.12 1017.40 1017.36 1017.28 1017.16 1017.44 1017.84 1018.12 1018.24 1018.28 1018.24 1018.20 1018.44 1018.76 1019.00 1019.24 1019.48 1019.56 1019.64 1019.52 1019.32 1019.12 1018.88 1018.72 1018.76
1015.44 1015.16 1015.16 1015.40 1015.04 1014.96 1014.96 1015.08 1015.28 1015.36 1015.44 1015.32 1015.12 1014.96 1014.84 1014.60 1014.52 1014.76 1015.00 1015.20 1015.36 1015.52 1015.80 1016.28 1016.76 1016.64 1016.64 1016.68 1016.60 1016.52 1016.64 1016.68 1016.56 1016.68 1016.96 1017.16 1017.24 1017.24 1017.28 1017.20 1017.24 1017.44 1017.36 1017.72 1018.08 1018.52 1018.64 1018.52 1018.56 1018.68 1018.84 1019.16 1019.44 1019.56 1019.64 1019.72 1019.76 1019.64 1019.36 1019.04 1018.76 1018.60 1018.72
1015.96 1015.80 1015.60 1015.60 1015.48 1015.24 1014.76 1014.84 1015.40 1015.60 1015.44 1015.56 1015.76 1015.72 1015.48 1015.24 1015.12 1015.28 1015.68 1015.68 1015.68 1015.80 1016.20 1016.24 1016.44 1016.68 1016.60 1016.28 1016.36 1016.72 1016.64 1016.60 1016.52 1016.72 1016.92 1017.12 1017.28 1017.04 1017.04 1017.16 1017.36 1017.40 1017.28 1017.40 1017.60 1018.16 1018.52 1018.68 1018.84 1019.08 1019.20 1019.36 1019.60 1019.72 1019.88 1019.88 1019.88 1019.80 1019.56 1019.04 1018.68 1018.52 1018.60
1016.24 1016.12 1015.92 1015.32 1014.92 1014.84 1014.92 1014.88 1015.28 1015.84 1016.00 1016.12 1016.20 1016.00 1015.80 1015.76 1015.96 1016.28 1016.36 1016.20 1016.04 1016.36 1016.72 1016.80 1016.56 1016.56 1016.80 1016.36 1016.24 1016.68 1016.88 1016.92 1016.84 1016.84 1016.96 1017.08 1017.16 1017.16 1017.28 1017.12 1017.28 1017.32 1017.24 1017.40 1017.88 1018.36 1018.72 1018.92 1019.12 1019.40 1019.72 1019.80 1019.92 1020.00 1020.08 1020.12 1020.12 1020.00 1019.64 1019.24 1018.88 1018.60 1018.64
1016.12 1015.96 1015.92 1015.60 1015.28 1014.92 1015.16 1015.44 1015.76 1016.12 1016.44 1016.52 1016.16 1016.00 1016.04 1016.12 1016.52 1016.96 1017.08 1017.00 1016.84 1016.88 1016.84 1016.60 1016.36 1016.28 1016.76 1016.76 1016.52 1016.68 1017.04 1017.28 1017.16 1017.04 1016.92 1017.00 1017.12 1017.08 1017.20 1017.08 1017.12 1017.16 1017.24 1017.64 1018.04 1018.56 1019.00 1019.28 1019.44 1019.72 1020.08 1020.24 1020.24 1020.28 1020.36 1020.40 1020.48 1020.36 1019.96 1019.52 1019.16 1018.92 1018.84
1016.36 1016.04 1015.64 1015.36 1015.28 1015.20 1015.32 1015.64 1016.04 1016.32 1016.60 1016.56 1016.56 1016.68 1016.88 1016.92 1017.24 1017.52 1017.60 1017.64 1017.48 1017.20 1016.72 1016.52 1016.44 1016.44 1016.64 1016.84 1016.96 1017.24 1017.24 1017.32 1017.48 1017.24 1017.20 1017.20 1017.12 1017.28 1017.44 1017.40 1017.36 1017.52 1017.76 1018.08 1018.44 1018.88 1019.28 1019.60 1019.84 1020.12 1020.44 1020.52 1020.56 1020.56 1020.68 1020.56 1020.64 1020.60 1020.36 1020.00 1019.68 1019.40 1019.16
1016.96 1016.76 1016.52 1016.16 1015.92 1015.76 1015.76 1016.20 1016.48 1016.60 1016.64 1016.68 1016.88 1017.08 1017.24 1017.20 1017.48 1017.56 1017.56 1017.64 1017.48 1017.12 1016.92 1016.84 1016.92 1016.88 1016.96 1017.16 1017.20 1017.32 1017.48 1017.52 1017.56 1017.60 1017.52 1017.60 1017.52 1017.48 1017.80 1017.76 1017.84 1018.08 1018.20 1018.48 1018.84 1019.20 1019.72 1020.04 1020.20 1020.40 1020.68 1020.84 1020.88 1020.88 1020.92 1020.84 1020.72 1020.72 1020.80 1020.64 1020.16 1019.76 1019.56
1017.12 1017.04 1016.76 1016.40 1016.28 1016.32 1016.24 1016.56 1016.76 1016.92 1016.88 1016.76 1016.76 1016.84 1016.92 1017.12 1017.48 1017.44 1017.40 1017.44 1017.12 1017.08 1017.12 1017.16 1017.24 1017.24 1017.40 1017.56 1017.60 1017.60 1017.68 1017.72 1017.76 1017.84 1017.84 1017.88 1017.96 1017.96 1018.08 1018.16 1018.16 1018.24 1018.44 1018.76 1019.16 1019.60 1019.96 1020.32 1020.32 1020.52 1020.72 1020.92 1021.08 1021.00 1021.04 1020.96 1020.88 1020.88 1020.84 1020.88 1020.64 1020.24 1020.00
1017.40 1017.32 1017.24 1017.20 1017.12 1016.80 1016.68 1016.80 1016.96 1017.08 1017.16 1017.04 1016.96 1016.88 1016.92 1016.96 1017.28 1017.44 1017.60 1017.40 1017.16 1017.36 1017.44 1017.56 1017.64 1017.76 1017.96 1018.04 1018.08 1018.08 1018.08 1018.12 1018.16 1018.20 1018.28 1018.36 1018.36 1018.44 1018.44 1018.52 1018.48 1018.76 1018.96 1019.00 1019.36 1019.64 1020.00 1020.32 1020.36 1020.48 1020.68 1020.84 1021.00 1021.04 1021.04 1020.96 1020.96 1021.00 1020.92 1020.88 1020.80 1020.60 1020.40
1017.32 1017.28 1017.20 1017.16 1017.16 1017.04 1017.08 1017.20 1017.32 1017.40 1017.44 1017.24 1016.96 1016.88 1016.88 1017.04 1017.12 1017.44 1017.44 1017.12 1017.08 1017.20 1017.44 1017.64 1017.80 1017.96 1018.16 1018.32 1018.44 1018.56 1018.56 1018.68 1018.76 1018.80 1018.88 1018.88 1018.80 1018.84 1018.84 1018.92 1019.00 1019.04 1019.08 1019.08 1019.32 1019.56 1019.92 1020.20 1020.24 1020.40 1020.52 1020.72 1020.84 1020.96 1021.04 1021.12 1021.24 1021.32 1021.28 1021.08 1021.04 1020.88 1020.72
1017.48 1017.36 1017.40 1017.36 1017.28 1017.16 1017.32 1017.40 1017.60 1017.72 1017.72 1017.68 1017.32 1017.08 1016.96 1017.08 1017.16 1017.20 1017.08 1017.08 1017.04 1017.08 1017.24 1017.60 1017.80 1018.04 1018.20 1018.40 1018.52 1018.60 1018.72 1018.96 1019.24 1019.44 1019.56 1019.68 1019.64 1019.60 1019.72 1019.80 1019.96 1019.88 1019.76 1019.64 1019.52 1019.68 1019.96 1020.12 1020.28 1020.36 1020.48 1020.68 1020.80 1020.92 1021.16 1021.32 1021.44 1021.56 1021.60 1021.52 1021.32 1021.24 1021.20
1017.76 1017.60 1017.40 1017.28 1017.28 1017.28 1017.40 1017.60 1017.84 1017.96 1018.00 1018.12 1018.00 1017.76 1017.64 1017.56 1017.56 1017.44 1017.32 1017.20 1017.12 1017.16 1017.28 1017.52 1017.80 1018.12 1018.28 1018.36 1018.44 1018.60 1018.80 1019.20 1019.52 1019.84 1020.24 1020.56 1020.52 1020.52 1020.36 1020.40 1020.52 1020.68 1020.84 1020.64 1020.40 1020.04 1020.08 1020.20 1020.36 1020.52 1020.60 1020.76 1020.80 1021.08 1021.36 1021.64 1021.72 1021.84 1021.92 1021.88 1021.72 1021.64 1021.64
1017.84 1017.76 1017.68 1017.68 1017.64 1017.52 1017.72 1017.76 1017.92 1018.04 1018.32 1018.48 1018.32 1018.24 1018.12 1017.96 1017.76 1017.60 1017.56 1017.52 1017.40 1017.36 1017.60 1017.84 1017.84 1017.92 1018.12 1018.24 1018.36 1018.68 1019.04 1019.44 1019.76 1020.12 1020.48 1020.88 1021.32 1021.84 1021.96 1021.60 1021.04 1021.08 1021.32 1021.36 1021.08 1020.64 1020.32 1020.40 1020.68 1020.80 1020.84 1020.80 1020.92 1021.28 1021.68 1021.80 1021.92 1022.08 1022.56 1022.48 1022.24 1021.84 1021.76
1018.08 1018.04 1018.00 1017.88 1017.76 1017.76 1017.84 1017.92 1018.04 1018.24 1018.52 1018.68 1018.60 1018.56 1018.48 1018.32 1018.16 1017.92 1017.76 1017.60 1017.52 1017.60 1017.88 1018.04 1018.08 1018.16 1018.32 1018.40 1018.48 1018.76 1019.28 1019.60 1019.88 1020.12 1020.40 1020.72 1021.20 1021.60 1022.04 1022.32 1022.24 1021.88 1021.56 1021.64 1021.32 1021.00 1020.88 1020.68 1020.92 1021.12 1021.20 1021.48 1021.80 1021.56 1021.48 1021.76 1022.00 1022.56 1022.56 1022.40 1022.32 1022.32 1022.32
1018.28 1018.32 1018.32 1018.24 1018.28 1018.28 1018.36 1018.36 1018.36 1018.44 1018.68 1018.76 1018.76 1018.88 1018.84 1018.68 1018.56 1018.40 1018.20 1018.00 1017.80 1017.84 1018.04 1018.04 1018.16 1018.24 1018.32 1018.40 1018.64 1018.96 1019.28 1019.60 1019.92 1020.16 1020.44 1020.68 1020.96 1021.32 1021.76 1022.08 1022.20 1022.48 1022.56 1022.24 1021.80 1021.40 1021.32 1021.32 1021.36 1021.36 1021.36 1021.32 1021.80 1022.28 1022.20 1022.24 1022.48 1022.48 1022.44 1022.32 1022.24 1022.20 1022.20
1018.28 1018.40 1018.40 1018.36 1018.52 1018.68 1018.72 1018.72 1018.80 1018.96 1019.08 1019.04 1019.00 1019.04 1019.00 1018.96 1018.84 1018.76 1018.64 1018.44 1018.20 1018.04 1018.12 1018.20 1018.24 1018.40 1018.48 1018.44 1018.64 1018.88 1019.28 1019.64 1019.92 1020.16 1020.48 1020.84 1021.08 1021.28 1021.48 1021.80 1022.24 1022.60 1022.88 1023.04 1022.40 1021.84 1021.64 1021.60 1021.64 1021.72 1021.80 1021.80 1021.84 1022.04 1022.56 1022.68 1022.52 1022.44 1022.32 1022.28 1022.28 1022.24 1022.24
Wind_Speed
10 9 11 10 12 10 10 13 11 12 11 13 13 14 13 12 11 10 11 11 11 10 9 9 9 8 8 7 7 5 5 5 4 6 6 6 6 6 6 6 6 6 6 6 6 6 6 5 5 6 4 5 4 3 4 3 3 4 4 3 3 3 4
10 9 10 11 12 11 11 12 10 11 11 13 13 15 12 13 12 11 12 11 11 11 10 10 9 8 8 7 7 6 6 6 5 5 5 5 5 6 6 5 6 6 5 6 6 6 6 5 6 6 5 5 4 4 5 3 3 3 4 3 3 2 2
8 9 9 10 11 13 12 11 10 12 12 11 13 14 14 12 13 13 12 12 12 10 9 10 9 8 8 8 7 7 6 7 6 7 6 6 6 7 6 5 6 5 6 6 6 5 6 5 7 6 7 6 5 5 4 3 3 3 3 3 3 3 2
9 7 11 10 10 12 13 11 11 11 12 12 12 11 14 13 13 13 12 13 13 11 11 10 10 9 8 8 8 8 7 7 7 8 7 6 7 6 7 4 6 5 5 6 6 5 5 4 6 6 7 5 5 5 4 4 3 3 3 4 3 3 3
9 6 8 11 11 12 12 11 12 11 11 13 13 9 13 13 13 12 12 13 13 13 12 11 10 9 8 8 7 7 8 8 7 7 7 7 7 5 7 5 6 5 4 5 5 5 4 5 4 4 5 5 4 5 6 5 5 4 3 4 3 2 4
10 7 5 10 12 12 13 13 13 13 13 13 13 12 13 14 12 14 13 13 12 11 11 10 10 9 9 9 8 8 7 7 7 7 6 6 7 7 7 6 7 6 6 5 5 5 4 6 5 4 4 4 5 6 5 5 5 6 4 4 4 3 4
9 6 5 9 11 12 15 14 13 12 12 13 10 11 13 13 13 14 12 13 13 13 12 12 11 11 9 9 8 8 9 8 7 7 6 8 6 7 8 7 7 6 7 5 7 5 6 6 6 5 5 4 3 6 5 5 4 5 4 5 4 4 2
8 6 4 6 11 12 13 14 14 11 12 13 11 11 14 13 13 13 12 11 12 12 12 12 11 10 9 9 8 8 9 8 8 6 5 9 7 5 8 6 7 7 7 7 7 6 6 4 6 6 7 4 5 4 6 6 6 5 6 5 4 4 3
7 6 7 5 7 9 13 12 13 12 11 13 13 12 13 11 11 13 13 12 11 12 11 11 10 10 9 8 8 7 9 7 7 6 5 8 7 7 8 8 6 7 7 7 7 6 8 6 5 7 7 7 6 6 5 7 6 4 6 6 5 5 4
7 5 5 5 4 4 9 11 11 11 7 11 11 11 11 10 10 11 11 13 11 12 12 12 9 10 9 7 9 8 10 8 7 8 7 7 7 8 6 7 6 5 4 7 8 8 7 8 6 6 7 6 6 4 5 5 4 3 4 6 6 5 5
6 4 4 4 3 2 4 8 9 11 6 8 10 10 9 8 9 9 10 13 11 12 12 10 9 11 10 8 9 7 10 9 9 8 7 7 6 8 6 5 6 6 4 4 4 5 7 8 5 6 7 6 5 5 5 5 4 3 3 4 4 5 4
5 5 3 1 1 1 3 6 6 6 5 5 7 9 9 6 8 8 9 14 12 12 11 9 9 12 12 9 9 7 7 8 8 9 9 8 6 8 6 7 5 6 5 4 6 4 5 6 4 5 6 5 5 5 5 5 5 4 4 4 4 4 4
7 7 11 11 6 2 2 1 5 4 3 4 4 7 9 6 6 7 9 12 11 12 11 8 10 11 11 10 10 9 8 8 7 6 7 8 6 7 5 7 7 6 6 4 6 5 4 5 5 5 6 5 5 6 6 6 6 5 5 4 3 5 4
9 11 11 5 4 5 2 3 2 3 3 2 5 1 4 7 5 7 10 12 10 11 10 7 10 11 11 10 9 10 8 7 8 7 6 7 5 5 7 6 6 5 6 4 5 5 5 4 5 6 6 6 5 5 5 5 4 4 4 4 3 3 4
7 8 7 2 3 3 6 9 8 7 3 3 2 4 0 1 3 6 7 8 9 11 10 8 9 10 10 9 7 8 6 5 6 6 5 5 7 5 5 9 8 7 7 6 6 6 6 4 4 6 5 4 5 4 5 5 4 3 3 3 3 4 3
4 3 2 1 3 5 6 6 6 9 13 7 2 3 6 5 5 4 7 6 7 9 8 8 9 8 8 7 6 5 5 4 3 1 0 1 3 9 6 6 7 8 7 7 7 5 6 5 4 5 6 6 6 5 5 4 3 2 2 2 3 3 2
1 1 1 2 1 3 7 8 8 4 5 8 11 10 10 10 10 8 5 5 5 4 5 6 7 6 4 5 6 5 5 5 4 3 4 2 5 5 2 4 8 6 5 5 5 5 5 7 6 5 4 6 6 6 4 4 3 6 4 3 2 1 4
5 4 0 1 1 3 4 5 3 2 2 5 1 5 8 10 8 7 8 6 4 5 8 11 14 13 12 8 6 5 4 3 1 3 3 3 3 1 2 3 6 5 3 3 5 5 3 5 5 3 2 3 5 5 6 4 8 7 8 7 5 4 1
1 1 5 2 0 1 2 1 2 2 4 4 3 3 3 7 10 8 5 2 3 9 14 14 14 10 5 2 0 1 3 4 2 1 2 2 3 1 1 2 4 6 7 6 4 6 8 8 9 7 5 7 9 7 6 4 7 6 6 5 5 5 3
0 2 4 4 3 1 1 4 3 4 4 3 3 2 4 4 5 5 5 7 12 12 9 7 8 9 6 5 5 4 3 3 2 2 1 1 1 0 1 2 4 5 5 5 4 4 5 7 8 7 7 8 8 7 4 3 5 5 4 2 2 3 2
3 5 5 5 8 8 6 2 2 2 4 3 4 2 3 5 4 4 6 7 11 11 11 6 5 8 6 3 5 4 4 2 1 2 1 1 0 1 1 1 3 6 5 5 5 5 5 4 5 6 8 8 7 6 5 3 5 5 4 3 1 1 1
11 9 9 6 6 7 7 6 4 3 4 2 5 3 3 4 3 5 3 5 8 6 6 6 8 8 5 5 6 5 4 2 1 1 0 1 2 2 2 1 3 6 5 5 5 5 5 5 5 5 6 6 7 6 5 3 5 5 4 3 2 2 2
10 12 9 5 5 7 4 4 4 4 5 4 5 6 5 3 3 2 2 1 4 5 6 7 8 8 6 5 3 4 1 2 2 3 3 3 4 4 3 3 3 5 4 6 5 6 6 5 5 5 6 7 6 7 4 3 5 6 5 3 2 2 2
7 7 9 7 8 9 8 6 2 2 2 6 7 4 4 4 6 7 6 6 5 4 5 5 4 3 5 3 4 3 1 3 7 6 5 5 5 2 2 3 6 6 4 5 6 6 4 5 7 7 7 7 6 4 5 3 6 7 5 2 1 3 3
6 6 6 5 5 8 9 9 8 6 7 10 11 11 9 6 7 9 8 7 7 7 7 3 8 5 4 4 3 3 4 6 8 6 6 5 2 2 3 6 7 6 4 3 4 7 6 6 8 8 7 7 7 9 7 4 5 8 7 6 4 4 5
6 4 3 5 7 8 8 9 12 14 14 12 10 9 11 9 9 9 8 8 8 9 8 7 4 9 5 6 4 2 3 4 2 2 1 3 4 4 3 4 8 8 7 5 5 7 6 6 7 9 7 6 6 6 5 6 5 6 9 9 11 7 5
6 6 6 6 7 7 8 10 11 11 10 7 9 10 9 9 8 8 7 7 9 9 6 5 7 6 10 7 2 2 5 4 4 4 4 6 6 6 5 4 8 9 8 7 7 8 8 8 8 9 8 6 6 6 7 6 6 7 10 12 12 11 8
7 8 5 5 8 6 9 10 11 11 11 10 10 9 7 8 9 7 6 6 8 6 5 7 8 8 9 6 7 7 5 7 6 6 6 6 7 8 7 6 6 7 8 8 9 9 8 8 8 8 8 7 7 7 6 7 10 6 10 12 13 14 12
5 7 8 9 11 10 10 11 11 10 9 8 8 6 5 7 8 6 5 7 7 6 7 8 8 9 10 8 8 7 7 7 8 5 6 6 7 8 8 6 9 9 9 9 9 9 9 8 8 9 8 7 6 6 6 5 6 8 7 10 12 13 14
3 5 7 9 11 10 11 11 10 9 8 7 5 5 5 6 6 6 7 7 5 7 7 8 8 9 9 8 7 8 9 9 8 8 7 7 7 8 8 8 8 8 8 8 8 9 9 8 8 8 8 8 7 5 4 3 6 7 9 8 12 13 15
4 4 4 5 8 8 8 9 9 9 8 6 5 3 4 4 5 5 5 3 4 4 6 7 8 8 8 7 7 8 7 6 6 6 6 6 6 6 7 7 7 8 6 8 8 7 8 7 6 7 7 7 7 6 4 4 3 2 4 8 11 13 15
4 4 4 4 5 5 6 6 6 6 8 7 5 5 4 3 3 5 4 3 4 4 5 5 5 6 7 7 8 9 9 10 10 11 10 9 7 6 5 5 4 5 6 6 6 6 6 6 6 6 6 6 5 4 4 6 6 6 5 5 8 10 14
3 2 3 4 5 6 6 6 6 5 4 6 4 4 3 4 4 3 4 4 3 3 4 7 6 6 6 7 8 8 8 9 7 8 9 9 9 8 8 8 7 7 7 5 4 6 5 5 4 5 5 5 5 6 6 5 5 5 4 5 5 6 7
4 4 3 2 1 3 5 6 6 5 6 5 4 6 7 6 6 7 5 4 3 4 4 4 4 6 6 7 7 7 9 9 13 11 8 7 8 8 8 8 8 8 7 5 5 4 4 4 4 4 4 5 5 6 6 5 4 4 4 4 5 5 5
3 3 3 4 4 5 6 5 5 5 7 5 3 3 4 6 6 5 6 5 4 4 5 4 5 7 6 4 4 7 9 8 7 7 9 9 9 8 6 5 6 7 7 6 2 3 3 6 5 4 4 3 4 6 5 4 4 2 3 3 5 6 5
4 5 4 4 4 4 5 4 4 5 6 4 3 3 3 4 4 4 4 4 5 6 7 5 4 5 6 5 5 8 9 8 8 8 9 9 9 9 8 11 11 8 6 5 9 12 12 8 6 4 4 7 5 3 4 5 4 4 4 4 6 8 8
3 3 4 4 4 4 4 4 4 5 5 3 2 3 4 4 4 5 5 5 4 6 5 4 4 4 6 6 7 10 8 7 7 7 7 8 9 8 8 6 8 13 12 9 7 10 13 13 14 12 8 9 7 7 11 8 6 4 2 3 5 7 6
3 3 3 3 3 3 3 4 5 5 4 5 4 3 3 4 4 4 4 4 4 5 6 5 5 5 5 5 7 11 8 7 8 7 7 7 7 8 9 8 8 6 9 10 9 10 11 12 12 12 12 11 9 7 3 2 2 4 4 6 7 8 7
Wind_Direction
197 179 170 169 177 179 164 166 162 167 158 157 161 166 164 165 161 162 163 165 168 169 167 170 171 171 167 164 161 160 161 161 148 151 159 165 168 168 174 174 174 179 172 170 181 187 195 196 174 181 182 178 179 183 184 184 161 165 168 163 148 135 174
199 187 176 172 172 169 162 168 161 163 159 158 159 165 166 165 162 165 164 167 170 173 169 172 172 171 169 165 160 162 160 170 158 159 160 174 170 171 168 171 171 184 181 177 181 191 191 195 177 177 178 184 182 174 175 171 167 172 151 159 149 169 167
205 189 182 169 171 168 166 166 165 164 161 161 158 164 171 165 167 166 162 166 170 172 174 172 174 174 170 162 161 170 171 169 167 167 172 173 171 167 176 170 181 183 191 184 186 190 191 185 185 172 177 178 170 167 161 171 188 194 170 168 157 182 186
206 197 180 172 168 167 165 163 161 164 163 166 167 167 165 162 166 164 162 168 168 171 176 176 174 175 172 165 166 171 181 179 180 175 178 168 176 166 177 177 183 190 177 179 184 182 176 161 152 165 170 174 162 169 166 183 204 206 171 175 191 182 194
203 200 187 172 164 162 167 162 162 164 163 167 172 168 161 164 164 162 165 169 170 173 177 176 176 176 173 171 170 176 180 185 186 179 183 173 175 168 179 182 177 186 179 168 165 174 157 164 150 155 159 175 161 174 176 179 193 202 182 177 186 196 202
205 194 191 176 166 163 170 169 165 168 167 169 171 170 160 167 166 166 168 170 169 172 176 174 179 177 176 177 179 176 177 186 185 182 187 169 171 176 180 185 175 189 176 182 177 175 169 164 167 167 171 184 165 184 177 185 187 193 182 174 189 206 203
196 185 180 183 167 165 171 173 169 169 171 172 164 165 161 170 170 168 169 172 171 173 178 178 182 178 176 176 184 175 177 182 180 188 180 182 180 178 180 180 181 191 178 179 174 167 161 160 168 165 180 196 185 184 177 187 191 189 170 173 192 216 199
192 190 188 191 172 164 170 172 176 167 171 172 167 167 166 171 166 169 173 172 172 174 181 180 184 175 174 174 182 177 177 179 184 194 172 183 184 178 173 189 179 194 169 176 170 158 165 175 173 174 181 191 207 203 188 183 195 187 175 179 188 218 215
191 191 187 200 173 173 166 172 176 176 172 175 173 168 171 176 170 169 174 169 175 173 182 181 182 170 174 176 179 172 175 173 181 190 185 175 185 193 182 193 183 187 171 173 168 169 171 188 189 175 179 191 195 209 188 187 192 180 174 177 184 195 223
191 191 193 208 153 175 173 170 173 179 175 172 170 173 174 177 174 173 167 169 173 174 178 179 174 164 172 172 182 175 170 172 176 185 195 190 183 199 181 179 174 173 168 177 168 173 176 182 190 176 177 184 183 171 156 157 174 173 163 179 186 189 211
186 176 191 202 182 159 180 168 173 179 172 172 166 174 180 176 179 173 166 170 174 176 178 178 167 163 171 169 175 172 170 177 178 185 195 199 187 196 185 176 165 172 187 152 139 165 162 175 173 173 175 176 166 153 157 167 177 191 207 199 176 180 194
12 7 357 347 320 162 221 175 160 171 168 166 169 174 183 179 181 176 164 174 172 174 178 174 165 167 170 173 173 178 176 180 179 183 187 196 192 192 188 173 173 169 186 172 176 143 160 172 178 160 174 170 163 162 165 173 184 192 213 210 189 181 188
84 36 343 329 359 340 237 221 158 147 145 132 169 179 180 183 186 175 164 174 171 172 175 168 165 168 170 173 174 178 183 179 185 187 183 191 199 186 176 172 182 173 186 171 167 158 155 168 172 164 173 175 169 177 177 182 189 192 200 215 182 176 186
147 157 193 230 338 353 314 251 192 168 157 115 113 160 201 183 165 166 168 171 170 171 169 159 163 167 172 172 170 178 176 176 180 190 187 187 203 193 178 169 176 177 188 169 157 166 176 189 159 177 169 182 178 178 174 179 188 188 195 196 193 168 167
161 182 197 174 53 32 36 31 359 354 322 172 125 131 168 1 145 151 159 160 162 167 166 154 156 168 171 173 165 170 169 160 178 185 190 189 192 211 184 179 181 184 180 185 170 174 177 187 164 166 177 178 181 183 172 169 176 165 175 177 183 142 162
138 151 144 64 57 37 35 34 67 45 359 339 84 90 100 81 327 153 150 158 155 159 161 143 149 159 165 167 167 158 154 130 80 63 100 81 205 207 189 182 193 184 185 184 182 176 174 177 178 171 178 181 188 178 175 163 139 76 100 197 181 178 192
352 80 94 65 45 64 57 30 9 53 78 355 355 49 63 57 28 5 55 81 96 107 136 127 127 118 91 67 51 61 80 105 115 99 95 85 39 8 299 170 182 191 194 187 179 182 180 181 185 190 189 183 173 176 138 77 43 16 38 59 357 232 190
346 341 12 116 85 59 98 120 127 329 167 137 51 61 82 92 85 51 18 13 61 83 68 63 56 49 57 45 41 59 62 35 47 136 140 108 74 64 15 104 125 145 144 172 195 202 180 181 182 195 205 209 176 103 74 76 27 28 23 20 15 351 283
343 20 345 0 11 102 239 148 88 95 358 31 71 43 64 112 127 138 147 79 24 64 69 73 80 76 49 64 169 170 144 139 162 212 204 126 136 144 75 65 110 119 104 83 80 99 100 94 86 85 73 57 61 60 55 55 21 15 29 27 18 358 318
164 126 98 52 12 294 294 17 40 60 52 11 342 110 128 44 42 47 58 70 70 70 45 65 108 131 162 196 210 198 195 166 139 195 193 88 84 79 46 70 95 88 88 99 78 73 87 92 106 117 109 106 103 98 91 74 2 348 353 25 21 347 336
52 101 68 77 60 42 48 153 165 331 57 17 326 302 51 57 62 65 54 65 95 120 143 185 121 112 125 172 245 232 216 209 130 211 267 97 80 4 31 13 77 85 86 88 82 71 74 91 97 102 113 112 119 118 108 77 6 330 336 341 353 317 246
4 55 82 59 68 57 53 24 37 100 128 194 289 341 27 78 50 59 53 68 92 98 97 100 111 126 145 186 226 235 226 157 123 323 336 148 172 184 184 170 101 106 106 94 86 78 76 61 66 77 97 112 113 108 96 74 20 353 333 332 330 222 191
32 49 49 53 69 87 70 47 19 19 345 347 330 350 24 37 70 71 23 70 95 95 98 100 102 106 130 224 231 240 209 108 133 186 192 200 198 203 190 143 105 104 112 104 90 81 70 82 73 76 85 80 77 92 87 63 8 353 338 330 11 106 120
25 58 75 59 68 69 62 56 31 115 59 52 48 11 319 336 61 62 49 50 79 91 89 113 109 148 164 181 210 232 152 182 217 207 201 205 195 155 125 104 109 98 84 85 89 80 73 78 78 70 73 74 70 67 78 61 14 360 341 3 92 141 123
24 55 77 88 82 86 82 75 48 31 48 47 38 26 22 25 54 64 62 56 54 50 45 51 145 121 130 223 191 118 160 202 226 225 213 209 104 110 126 130 117 115 113 172 136 114 110 102 95 89 77 77 80 75 72 50 24 11 358 40 71 110 113
17 18 69 79 63 77 79 74 71 51 37 32 33 43 50 42 50 50 48 53 58 57 51 36 66 151 152 245 236 91 66 23 327 319 251 156 119 76 64 127 128 142 169 177 106 110 101 97 91 90 81 76 74 68 61 52 30 23 30 39 42 55 106
54 50 48 71 90 95 83 73 72 75 69 49 36 35 39 58 62 56 46 48 53 52 46 55 57 83 147 207 271 77 98 78 56 37 43 81 91 95 92 103 127 145 150 129 110 107 101 100 98 90 85 73 68 66 52 53 43 28 41 49 52 54 74
36 31 35 72 65 67 82 86 84 80 73 59 48 41 41 58 63 63 60 61 64 53 48 55 59 65 54 73 97 93 102 93 63 59 66 80 102 100 92 84 88 96 95 97 105 109 105 98 92 91 85 72 62 59 51 51 49 29 37 51 58 57 61
35 54 68 84 86 82 80 81 78 76 80 87 88 84 69 71 81 85 86 82 74 68 62 65 65 67 72 63 68 84 98 102 104 91 78 77 80 93 94 91 96 96 99 104 104 101 98 94 98 97 91 84 71 65 60 47 50 34 36 32 47 56 61
22 66 69 81 90 94 95 90 87 85 81 79 80 81 77 71 69 70 70 74 83 77 67 67 68 71 70 66 68 84 87 88 88 81 75 75 75 77 88 91 93 95 101 105 109 112 108 110 111 107 108 107 106 101 96 73 57 51 43 38 35 46 50
26 55 70 73 77 87 92 102 107 107 101 92 78 70 95 110 106 96 85 88 108 106 100 91 81 77 71 67 59 56 64 77 85 88 82 81 81 82 82 88 91 96 103 112 113 113 115 123 125 122 125 125 130 140 148 145 113 67 61 59 47 43 46
18 22 32 59 75 76 89 90 93 104 106 101 89 74 69 89 114 110 116 117 107 120 116 104 103 104 99 93 82 79 77 71 64 59 51 47 46 54 45 48 68 101 119 115 112 113 121 131 133 133 132 133 135 126 106 80 69 52 30 25 47 41 39
18 36 82 93 97 95 81 82 84 83 91 96 99 98 89 78 61 87 123 111 100 81 105 133 132 120 115 111 110 98 82 74 66 59 54 48 47 48 50 49 45 36 33 31 87 125 130 124 124 123 128 134 130 113 95 84 71 59 43 20 31 40 39
29 40 39 53 60 88 93 90 89 78 61 56 49 52 49 48 56 44 36 46 54 54 60 86 120 134 139 132 130 125 111 99 86 78 60 49 47 44 45 52 54 51 38 25 19 49 101 116 121 125 136 136 123 104 97 81 69 50 44 31 39 45 40
30 39 40 38 46 78 95 100 92 76 74 74 59 59 68 76 71 61 56 44 35 45 59 55 72 82 89 105 121 111 101 98 96 92 92 82 70 62 42 22 29 59 60 32 29 18 56 95 76 59 47 68 99 117 103 91 85 72 37 59 54 58 45
46 39 30 26 43 57 66 71 85 87 84 65 45 41 56 65 61 52 50 54 43 55 65 55 69 80 74 77 74 101 112 112 110 110 106 100 96 87 68 49 47 25 58 53 33 50 51 68 80 70 103 92 44 27 125 132 134 136 105 91 78 78 74
102 72 53 30 37 37 52 50 50 61 73 77 50 49 42 40 35 35 30 35 58 70 69 66 67 89 86 72 83 108 117 115 115 114 109 111 109 104 95 72 37 31 26 26 52 76 78 73 72 72 77 103 107 57 52 80 108 131 145 96 68 56 46
101 93 83 62 56 43 43 46 43 40 29 20 23 45 45 51 41 34 25 19 40 69 80 77 79 76 76 77 94 110 115 119 123 125 126 124 124 120 125 113 97 54 19 11 33 64 80 86 85 83 81 86 105 123 80 104 148 143 76 49 42 35 23